DLH74 EDDH-YSSY

Flight info

Callsign DLH74
Flight time N/A
Altitude 31000
Route AMLUH2G AMLUH L619 PITEN DCT SUBIX T710 VAGON P193 KELEL DCT KUSIS DCT ETEPA DCT LAPKA DCT DINRO N743 UDROS UM859 KARDE UN644 FALAZ/N0480F330 UN644 ROLIN N644 LAGAS M747 SULEL N449 DUKAN B449 RANAH L750 BIROS/N0483F350 L750 UPVAL G201 BINDO L750 MERUN L333 JJP J1 KKJ L759 LIBDI/N0486F370 L759 PUT B579 VPL W531 VIH A464 VKL Y507 MAKNA Y511 TOPOR A464 ARAMA P501 ANITO B470 PKP L511 RUPKA/N0480F390 L511 SBR M766 BLI M635 ATMAP A576 AS/N0472F410 A576 KADOM DCT ODALE
Aircraft A346/H-SDE2E3FGHIJ3J4J5M1RWXY/LB1D1

Departure

Time 2026-04-21 19:04
Airport Hamburg Helmut Schmidt Airport (EDDH)

Arrival

Time N/A
Airport Sydney Kingsford Smith International Airport (YSSY)
Time Latitude Longitude Altitude Speed Heading
2026-04-21 18:23 53.62894 10.00205 71 ft 0 kts 122°
2026-04-21 18:37 53.62897 10.00194 71 ft 2 kts 122°
2026-04-21 18:37 53.62906 10.00173 71 ft 2 kts 122°
2026-04-21 18:37 53.62913 10.00152 71 ft 2 kts 122°
2026-04-21 18:37 53.62922 10.00131 71 ft 2 kts 123°
2026-04-21 18:38 53.62931 10.00111 71 ft 2 kts 147°
2026-04-21 18:38 53.62945 10.00102 71 ft 2 kts 175°
2026-04-21 18:38 53.62959 10.00104 71 ft 2 kts 201°
2026-04-21 18:38 53.62966 10.00110 71 ft 1 kts 213°
2026-04-21 18:39 53.62969 10.00113 71 ft 0 kts 213°
2026-04-21 18:41 53.62964 10.00108 71 ft 2 kts 213°
2026-04-21 18:42 53.62944 10.00087 71 ft 4 kts 213°
2026-04-21 18:42 53.62911 10.00056 71 ft 6 kts 201°
2026-04-21 18:42 53.62861 10.00061 71 ft 8 kts 158°
2026-04-21 18:42 53.62804 10.00107 71 ft 10 kts 153°
2026-04-21 18:43 53.62737 10.00163 71 ft 11 kts 153°
2026-04-21 18:43 53.62664 10.00227 71 ft 11 kts 153°
2026-04-21 18:43 53.62613 10.00263 71 ft 5 kts 181°
2026-04-21 18:43 53.62580 10.00225 71 ft 5 kts 229°
2026-04-21 18:44 53.62560 10.00176 71 ft 6 kts 238°
2026-04-21 18:44 53.62537 10.00110 71 ft 5 kts 243°
2026-04-21 18:44 53.62530 10.00065 71 ft 3 kts 283°
2026-04-21 18:44 53.62549 10.00025 71 ft 0 kts 327°
2026-04-21 18:51 53.62626 9.99952 71 ft 5 kts 332°
2026-04-21 18:51 53.62628 9.99949 71 ft 0 kts 332°
2026-04-21 18:52 53.62640 9.99939 71 ft 4 kts 332°
2026-04-21 18:52 53.62677 9.99906 71 ft 7 kts 336°
2026-04-21 18:52 53.62736 9.99908 71 ft 9 kts 21°
2026-04-21 18:52 53.62771 9.99934 71 ft 0 kts 26°
2026-04-21 18:54 53.62772 9.99934 71 ft 0 kts 26°
2026-04-21 18:54 53.62782 9.99943 71 ft 2 kts 26°
2026-04-21 18:55 53.62797 9.99957 71 ft 4 kts 32°
2026-04-21 18:55 53.62809 9.99970 71 ft 0 kts 33°
2026-04-21 18:56 53.62815 9.99977 71 ft 2 kts 33°
2026-04-21 18:56 53.62830 10.00001 71 ft 0 kts 54°
2026-04-21 18:57 53.62831 10.00002 71 ft 0 kts 54°
2026-04-21 18:58 53.62839 10.00036 71 ft 4 kts 81°
2026-04-21 18:58 53.62825 10.00080 71 ft 5 kts 138°
2026-04-21 18:58 53.62784 10.00122 71 ft 7 kts 151°
2026-04-21 18:58 53.62730 10.00170 71 ft 9 kts 152°
2026-04-21 18:59 53.62666 10.00227 71 ft 10 kts 152°
2026-04-21 18:59 53.62619 10.00267 71 ft 3 kts 160°
2026-04-21 18:59 53.62599 10.00257 71 ft 3 kts 216°
2026-04-21 18:59 53.62583 10.00229 71 ft 3 kts 231°
2026-04-21 19:00 53.62564 10.00183 71 ft 7 kts 238°
2026-04-21 19:00 53.62541 10.00115 71 ft 5 kts 242°
2026-04-21 19:00 53.62530 10.00068 71 ft 3 kts 272°
2026-04-21 19:00 53.62547 10.00027 71 ft 3 kts 326°
2026-04-21 19:01 53.62551 10.00023 71 ft 0 kts 328°
2026-04-21 19:03 53.62680 9.99903 71 ft 51 kts 334°
2026-04-21 19:03 53.63174 9.99482 71 ft 107 kts 334°
2026-04-21 19:04 53.63996 9.98767 71 ft 155 kts 333°
2026-04-21 19:04 53.65071 9.97833 86 ft 192 kts 333°
2026-04-21 19:04 53.66289 9.96791 445 ft 195 kts 335°
2026-04-21 19:04 53.67489 9.95741 849 ft 197 kts 336°
2026-04-21 19:05 53.68702 9.94657 1286 ft 199 kts 338°
2026-04-21 19:05 53.70032 9.94098 1667 ft 196 kts
2026-04-21 19:05 53.71371 9.94231 2034 ft 191 kts
2026-04-21 19:05 53.72665 9.94673 2216 ft 192 kts 29°
2026-04-21 19:06 53.73656 9.96147 2354 ft 194 kts 64°
2026-04-21 19:06 53.73943 9.98351 2611 ft 196 kts 84°
2026-04-21 19:06 53.74103 10.00656 2950 ft 195 kts 79°
2026-04-21 19:06 53.74231 10.02939 3243 ft 198 kts 96°
2026-04-21 19:07 53.73764 10.05146 3456 ft 207 kts 117°
2026-04-21 19:07 53.73012 10.07282 3592 ft 217 kts 116°
2026-04-21 19:07 53.72240 10.09522 3779 ft 228 kts 116°
2026-04-21 19:07 53.71432 10.11903 3992 ft 240 kts 116°
2026-04-21 19:08 53.70578 10.14440 4255 ft 252 kts 116°
2026-04-21 19:08 53.69699 10.17058 4505 ft 264 kts 116°
2026-04-21 19:08 53.68682 10.19676 4868 ft 275 kts 133°
2026-04-21 19:08 53.66994 10.21340 5328 ft 287 kts 161°
2026-04-21 19:09 53.65061 10.22113 5859 ft 288 kts 162°
2026-04-21 19:09 53.63134 10.22947 6356 ft 290 kts 161°
2026-04-21 19:09 53.61187 10.23832 6840 ft 292 kts 160°
2026-04-21 19:09 53.59205 10.24745 7355 ft 294 kts 160°
2026-04-21 19:10 53.57249 10.25645 7839 ft 296 kts 160°
2026-04-21 19:10 53.55253 10.26563 8300 ft 299 kts 160°
2026-04-21 19:10 53.53239 10.27490 8768 ft 301 kts 160°
2026-04-21 19:10 53.51224 10.28414 9213 ft 303 kts 160°
2026-04-21 19:11 53.49193 10.29343 9658 ft 305 kts 160°
2026-04-21 19:11 53.47118 10.30292 10096 ft 307 kts 160°
2026-04-21 19:11 53.45058 10.31236 10512 ft 309 kts 159°
2026-04-21 19:11 53.43132 10.32788 10702 ft 309 kts 135°
2026-04-21 19:12 53.42146 10.34493 10841 ft 310 kts 121°
2026-04-21 19:12 53.40767 10.38776 11104 ft 319 kts 113°
2026-04-21 19:12 53.39749 10.42100 11303 ft 329 kts 114°
2026-04-21 19:12 53.38679 10.45532 11492 ft 339 kts 114°
2026-04-21 19:13 53.37555 10.49111 11685 ft 349 kts 114°
2026-04-21 19:13 53.36411 10.52731 11928 ft 357 kts 114°
2026-04-21 19:13 53.35238 10.56427 12354 ft 359 kts 114°
2026-04-21 19:13 53.34064 10.60120 12822 ft 361 kts 114°
2026-04-21 19:14 53.32878 10.63843 13267 ft 363 kts 114°
2026-04-21 19:14 53.31700 10.67539 13698 ft 365 kts 115°
2026-04-21 19:14 53.30506 10.71280 14118 ft 367 kts 115°
2026-04-21 19:14 53.29305 10.75041 14533 ft 369 kts 115°
2026-04-21 19:15 53.28092 10.78828 14955 ft 371 kts 115°
2026-04-21 19:15 53.26867 10.82641 15367 ft 373 kts 115°
2026-04-21 19:15 53.25646 10.86440 15768 ft 375 kts 115°
2026-04-21 19:15 53.24404 10.90300 16180 ft 377 kts 115°
2026-04-21 19:16 53.23163 10.94154 16582 ft 378 kts 115°
2026-04-21 19:16 53.21919 10.98010 16976 ft 380 kts 115°
2026-04-21 19:16 53.20666 11.01888 17377 ft 381 kts 115°
2026-04-21 19:16 53.19400 11.05801 17754 ft 383 kts 115°
2026-04-21 19:17 53.16858 11.13641 18468 ft 387 kts 115°
2026-04-21 19:17 53.15587 11.17553 18802 ft 389 kts 115°
2026-04-21 19:17 53.14302 11.21498 19141 ft 391 kts 115°
2026-04-21 19:18 53.12993 11.25505 19495 ft 392 kts 115°
2026-04-21 19:18 53.11693 11.29484 19846 ft 394 kts 115°
2026-04-21 19:18 53.10377 11.33503 20188 ft 395 kts 115°
2026-04-21 19:18 53.09067 11.37501 20524 ft 396 kts 114°
2026-04-21 19:19 53.07738 11.41550 20846 ft 398 kts 114°
2026-04-21 19:19 53.06416 11.45571 21157 ft 399 kts 114°
2026-04-21 19:19 53.05093 11.49636 21485 ft 400 kts 112°
2026-04-21 19:19 53.03928 11.53771 21791 ft 399 kts 109°
2026-04-21 19:20 53.02930 11.58082 22093 ft 399 kts 105°
2026-04-21 19:20 53.02126 11.62432 22381 ft 399 kts 102°
2026-04-21 19:20 53.01376 11.66888 22651 ft 401 kts 102°
2026-04-21 19:20 53.00626 11.71368 22926 ft 403 kts 102°
2026-04-21 19:21 52.99876 11.75840 23214 ft 404 kts 102°
2026-04-21 19:21 52.99103 11.80366 23502 ft 406 kts 103°
2026-04-21 19:21 52.98220 11.84809 23777 ft 408 kts 105°
2026-04-21 19:21 52.97308 11.89234 24053 ft 409 kts 105°
2026-04-21 19:22 52.96386 11.93700 24323 ft 411 kts 105°
2026-04-21 19:22 52.95454 11.98205 24600 ft 411 kts 105°
2026-04-21 19:22 52.94526 12.02689 24871 ft 412 kts 105°
2026-04-21 19:22 52.93586 12.07209 25123 ft 414 kts 105°
2026-04-21 19:23 52.92655 12.11681 25356 ft 415 kts 105°
2026-04-21 19:23 52.91710 12.16210 25564 ft 417 kts 105°
2026-04-21 19:23 52.90754 12.20778 25753 ft 419 kts 105°
2026-04-21 19:23 52.89798 12.25339 25956 ft 421 kts 105°
2026-04-21 19:24 52.88839 12.29895 26179 ft 422 kts 105°
2026-04-21 19:24 52.87876 12.34462 26391 ft 423 kts 105°
2026-04-21 19:24 52.86905 12.39062 26598 ft 425 kts 105°
2026-04-21 19:24 52.85922 12.43705 26805 ft 426 kts 105°
2026-04-21 19:25 52.84952 12.48277 26991 ft 427 kts 105°
2026-04-21 19:25 52.83962 12.52940 27186 ft 428 kts 105°
2026-04-21 19:25 52.82977 12.57562 27366 ft 430 kts 105°
2026-04-21 19:25 52.81974 12.62260 27532 ft 431 kts 105°
2026-04-21 19:26 52.80974 12.66927 27725 ft 432 kts 105°
2026-04-21 19:26 52.79976 12.71575 27918 ft 433 kts 105°
2026-04-21 19:26 52.78978 12.76214 28073 ft 435 kts 105°
2026-04-21 19:26 52.77951 12.80983 28251 ft 436 kts 105°
2026-04-21 19:27 52.76939 12.85664 28426 ft 438 kts 105°
2026-04-21 19:27 52.75921 12.90368 28585 ft 439 kts 105°
2026-04-21 19:27 52.74889 12.95120 28825 ft 438 kts 105°
2026-04-21 19:27 52.73863 12.99828 29098 ft 437 kts 105°
2026-04-21 19:28 52.72837 13.04529 29368 ft 436 kts 105°
2026-04-21 19:28 52.71820 13.09181 29584 ft 435 kts 105°
2026-04-21 19:28 52.70786 13.13908 29780 ft 435 kts 105°
2026-04-21 19:28 52.69756 13.18602 29965 ft 436 kts 105°
2026-04-21 19:29 52.68731 13.23264 30117 ft 436 kts 105°
2026-04-21 19:29 52.67693 13.27976 30253 ft 437 kts 105°
2026-04-21 19:29 52.66655 13.32675 30371 ft 438 kts 105°
2026-04-21 19:29 52.65618 13.37353 30494 ft 439 kts 105°
2026-04-21 19:30 52.64569 13.42077 30620 ft 440 kts 105°
2026-04-21 19:30 52.63513 13.46821 30773 ft 440 kts 105°
2026-04-21 19:30 52.62453 13.51572 30915 ft 440 kts 105°
2026-04-21 19:30 52.61405 13.56259 31038 ft 440 kts 105°
2026-04-21 19:31 52.60348 13.60977 31142 ft 441 kts 105°
2026-04-21 19:31 52.59275 13.65762 31246 ft 441 kts 106°
2026-04-21 19:31 52.57140 13.75240 31264 ft 443 kts 106°
2026-04-21 19:32 52.54996 13.84711 31259 ft 444 kts 106°
2026-04-21 19:32 52.52849 13.94150 31256 ft 443 kts 106°
2026-04-21 19:33 52.50678 14.03657 31259 ft 444 kts 105°
2026-04-21 19:33 52.48506 14.13134 31258 ft 444 kts 106°
2026-04-21 19:34 52.46323 14.22613 31259 ft 445 kts 105°
2026-04-21 19:34 52.44123 14.32129 31255 ft 445 kts 106°
2026-04-21 19:35 52.40828 14.46284 31251 ft 446 kts 106°
2026-04-21 19:36 52.38388 14.55685 31253 ft 448 kts 110°
2026-04-21 19:36 52.35390 14.64669 31250 ft 453 kts 116°
2026-04-21 19:37 52.31927 14.73321 31240 ft 456 kts 118°
2026-04-21 19:37 52.28447 14.81911 31227 ft 455 kts 118°
2026-04-21 19:38 52.24936 14.90539 31223 ft 455 kts 118°
2026-04-21 19:38 52.22029 14.97657 31221 ft 456 kts 118°
2026-04-21 19:39 52.17911 15.07700 31222 ft 457 kts 118°
2026-04-21 19:39 52.14382 15.16276 31222 ft 458 kts 118°
2026-04-21 19:40 52.10848 15.24835 31216 ft 457 kts 118°
2026-04-21 19:40 52.07308 15.33380 31216 ft 457 kts 118°
2026-04-21 19:41 52.03761 15.41913 31211 ft 457 kts 118°
2026-04-21 19:41 52.00203 15.50450 31208 ft 458 kts 118°